[[{"header":{"parameterUnit":"m.s-1","parameterCategory":1,"la1":30.2991,"la2":30.254,"lo1":-89.0895,"lo2":-89.0444,"dy":0.0017,"dx":0.0017,"nx":28,"ny":28,"refTime":"2024-10-20T21:00:00:Z","depth":0,"parameterNumber":2,"parameterNumberName":"U-component_of_WINDS"},"data":[0,0,0,0,0,0,0,0,0,0,0,0,0,0,0,0,0,0,0,0,0,0,0,0,0,0,0,0,0,0,0,0,0,0,0,0,0,0,0,0,0,0,0,0,0,0,0,0,0,0,0,0,0,0,0,0,0,0,-2.3739,-2.374,0,-2.3784,-2.3784,-2.3785,-2.3678,-2.3674,-2.3671,-2.3668,-2.3714,-2.3718,-2.3723,0,0,0,0,0,0,0,0,0,0,0,0,0,-2.3562,-2.3566,-2.3739,-2.374,-2.3741,-2.3784,-2.3784,-2.3785,-2.3678,-2.3674,-2.367,-2.3666,-2.3713,-2.3718,-2.3723,0,0,0,0,0,0,0,0,0,0,0,0,0,-2.3626,-2.3567,-2.3739,-2.3693,-2.3689,-2.3784,-2.3784,-2.3785,-2.3679,-2.3674,-2.3669,-2.3664,-2.3711,-2.3717,-2.3724,-2.3866,0,0,-2.3744,-2.3747,0,0,0,0,0,0,0,0,-2.3623,-2.3633,-2.3699,-2.3696,-2.3692,-2.372,-2.3739,-2.3812,-2.3681,-2.3683,-2.3668,-2.3662,-2.372,-2.3726,-2.3745,-2.3869,-2.3871,-2.3745,-2.3749,-2.3751,-2.3753,0,0,0,0,0,0,0,-2.3619,-2.363,-2.3757,-2.37,-2.3696,-2.3669,-2.3673,-2.3752,-2.373,-2.3682,-2.3675,-2.3681,-2.3717,-2.3739,-2.3746,-2.3871,-2.3744,-2.375,-2.3754,-2.3757,-2.4114,-2.4119,0,0,0,0,0,0,-2.362,-2.3627,-2.3755,-2.3758,-2.3644,-2.3677,-2.3681,-2.3716,-2.3728,-2.3725,-2.3686,-2.3676,-2.373,-2.3738,-2.3747,-2.3915,-2.3751,-2.3758,-2.3761,-2.4108,-2.4115,-2.4121,0,0,0,0,0,0,-2.3617,-2.3632,-2.3754,-2.3691,-2.3704,-2.3685,-2.3726,-2.372,-2.3741,-2.3731,-2.3726,-2.3712,-2.3727,-2.3738,-2.3837,-2.3915,-2.3761,-2.3767,-2.4102,-2.411,-2.4118,-2.4253,0,0,0,0,0,0,-2.3612,-2.3632,-2.3686,-2.3693,-2.3708,-2.3844,-2.3731,-2.3724,-2.3753,-2.3741,-2.3755,-2.3752,-2.3724,-2.3828,-2.3844,-2.3922,-2.3772,-2.4095,-2.4106,-2.4115,-2.4242,-2.4265,-2.4285,0,0,0,0,0,-2.3606,-2.3722,-2.3689,-2.3705,-2.3775,-2.3849,-2.3857,-2.3822,-2.376,-2.3814,-2.3807,-2.3752,-2.3904,-2.3839,-2.3856,-2.3937,-2.409,-2.4103,-2.4115,-2.4232,-2.426,-2.4284,0,0,0,0,0,0,-2.3725,-2.3722,-2.3686,-2.3808,-2.3829,-2.3831,-2.3898,-2.3853,-2.3893,-2.3881,-2.3835,-2.3839,-2.3948,-2.3952,-2.388,-2.4076,-2.3986,-2.4003,-2.4069,-2.4096,-2.4118,-2.4115,-2.3777,0,0,0,0,0,-2.3766,-2.3826,-2.382,-2.3928,-2.394,-2.3918,-2.3948,-2.3919,-2.394,-2.3949,-2.3949,-2.3972,-2.4024,-2.406,-2.4108,-2.4241,-2.4243,-2.4304,-2.4326,-2.4344,-2.4359,-2.443,-2.4458,-2.4162,-2.4162,-2.4161,0,0,-2.385,-2.3856,-2.3897,-2.3952,-2.3965,-2.4029,-2.3926,-2.3997,-2.4044,-2.3959,-2.4054,-2.4055,-2.4077,-2.4195,-2.4246,-2.4201,-2.4441,-2.436,-2.4374,-2.438,-2.4446,-2.4474,-2.4499,-2.417,-2.4169,-2.4167,0,0,-2.4037,-2.4046,-2.4138,-2.4153,-2.4175,-2.4159,-2.4181,-2.4189,-2.4186,-2.428,-2.4218,-2.4273,-2.4365,-2.4383,-2.4404,-2.4597,-2.4548,-2.4614,-2.4728,-2.4798,-2.4821,-2.4842,-2.4912,-2.4937,-2.4629,-2.4629,-2.4629,0,-2.4139,-2.4232,-2.4191,-2.4267,-2.4293,-2.4218,-2.4311,-2.4328,-2.4364,-2.4384,-2.4333,-2.4447,-2.4456,-2.4577,-2.4624,-2.4643,-2.4668,-2.4613,-2.4821,-2.4841,-2.486,-2.4926,-2.4952,-2.4637,-2.4636,-2.4635,-2.4635,0,-2.4357,-2.4423,-2.4494,-2.4531,-2.4565,-2.4649,-2.4621,-2.466,-2.4628,-2.4617,-2.4714,-2.4722,-2.4771,-2.4797,-2.4766,-2.4914,-2.4885,-2.4828,-2.4738,-2.4897,-2.4958,-2.4983,-2.4649,-2.4646,-2.4643,-2.4641,0,0,-2.4622,-2.4634,-2.4661,-2.4677,-2.4695,-2.4745,-2.4825,-2.4872,-2.4908,-2.4935,-2.5002,-2.508,-2.5028,-2.5052,-2.5022,-2.5084,-2.5237,-2.5019,-2.5019,-2.5061,-2.5402,-2.5446,-2.5476,-2.5204,-2.5208,-2.5212,-2.54,0,-2.4807,-2.4946,-2.491,-2.5048,-2.5108,-2.5038,-2.5108,-2.5126,-2.5118,-2.5168,-2.5159,-2.5216,-2.5142,-2.5156,-2.5213,-2.5207,-2.5305,-2.5192,-2.5266,-2.527,-2.5265,-2.5508,-2.5555,-2.5732,-2.5424,-2.5428,-2.5431,0,-2.5042,-2.5079,-2.5223,-2.5231,-2.5254,-2.5318,-2.5359,-2.5407,-2.5427,-2.5416,-2.5444,-2.5401,-2.5481,-2.5388,-2.5498,-2.5421,-2.5449,-2.545,-2.5456,-2.5464,-2.5361,-2.5523,-2.5788,-2.5815,-2.5468,-2.5465,-2.5462,0,-2.5223,-2.5308,-2.5405,-2.542,-2.5432,-2.5478,-2.5485,-2.5499,-2.553,-2.5565,-2.5585,-2.5629,-2.5654,-2.5689,-2.566,-2.5595,-2.5774,-2.5679,-2.5769,-2.577,-2.5811,-2.5809,-2.6086,-2.5827,-2.5826,-2.5826,-2.5825,0,-2.5435,-2.5526,-2.5486,-2.5546,-2.5646,-2.5604,-2.5704,-2.5703,-2.5716,-2.5775,-2.5716,-2.5772,-2.5729,-2.5782,-2.5759,-2.5854,-2.5865,-2.5859,-2.5853,-2.5866,-2.5867,-2.5885,-2.5873,-2.5833,-2.5831,-2.583,-2.5829,0,-2.5654,-2.5631,-2.5732,-2.5735,-2.5737,-2.5811,-2.5813,-2.5868,-2.5855,-2.593,-2.5945,-2.5925,-2.5984,-2.5958,-2.602,-2.6005,-2.6127,-2.6103,-2.6121,-2.6115,-2.6207,-2.6199,-2.6506,-2.6545,-2.6259,-2.6262,-2.6264,0,-2.5792,-2.5861,-2.587,-2.5905,-2.5916,-2.5973,-2.6004,-2.5965,-2.6,-2.6027,-2.608,-2.6133,-2.6174,-2.6271,-2.6262,-2.6309,-2.6287,-2.6391,-2.6294,-2.6305,-2.629,-2.6288,-2.6295,-2.6412,-2.6415,-2.6418,-2.642,0,-2.604,-2.6024,-2.6071,-2.6115,-2.6153,-2.6185,-2.6212,-2.6244,-2.6206,-2.6248,-2.6308,-2.634,-2.6402,-2.6457,-2.6498,-2.6504,-2.6457,-2.645,-2.6474,-2.6489,-2.6497,-2.6495,-2.6176,-2.6444,-2.6441,-2.644,-2.6438,-2.6437,-2.6223,-2.6281,-2.6297,-2.6351,-2.6367,-2.6394,-2.6446,-2.644,-2.6488,-2.6537,-2.651,-2.658,-2.6597,-2.6648,-2.6661,-2.6715,-2.6674,-2.6708,-2.6716,-2.6726,-2.6739,-2.6487,-2.6722,-2.6721,-2.672,-2.672,-2.6719,0,-2.6469,-2.6475,-2.6526,-2.6565,-2.6608,-2.6558,-2.6585,-2.6624,-2.6686,-2.6706,-2.6748,-2.6816,-2.6868,-2.6863,-2.6911,-2.6955,-2.6935,-2.6969,-2.6967,-2.6969,-2.6772,-2.6748,-2.6985,-2.6985,-2.6985,-2.6985,-2.6985,-2.6985,-2.6602,-2.6697,-2.6684,-2.6787,-2.6792,-2.686,-2.688,-2.6904,-2.692,-2.6999,-2.7042,-2.7038,-2.7048,-2.7096,-2.7142,-2.7139,-2.716,-2.7204,-2.7193,-2.7009,-2.6983,-2.6958,-2.6935,-2.7208,-2.7208,-2.7386,-2.7387,-2.7389]},{"header":{"parameterUnit":"m.s-1","parameterCategory":1,"la1":30.2991,"la2":30.254,"lo1":-89.0895,"lo2":-89.0444,"dy":0.0017,"dx":0.0017,"nx":28,"ny":28,"refTime":"2024-10-20T21:00:00:Z","depth":0,"parameterNumber":3,"parameterNumberName":"V-component_of_WINDS"},"data":[0,0,0,0,0,0,0,0,0,0,0,0,0,0,0,0,0,0,0,0,0,0,0,0,0,0,0,0,0,0,0,0,0,0,0,0,0,0,0,0,0,0,0,0,0,0,0,0,0,0,0,0,0,0,0,0,0,0,-2.1531,-2.1532,0,-2.1568,-2.1568,-2.1569,-2.1572,-2.1571,-2.1571,-2.1571,-2.1605,-2.1606,-2.1607,0,0,0,0,0,0,0,0,0,0,0,0,0,-2.146,-2.1462,-2.1531,-2.1532,-2.1532,-2.1568,-2.1568,-2.1569,-2.1572,-2.1571,-2.1571,-2.157,-2.1604,-2.1606,-2.1607,0,0,0,0,0,0,0,0,0,0,0,0,0,-2.1493,-2.1462,-2.1531,-2.1538,-2.1539,-2.1568,-2.1568,-2.1569,-2.1572,-2.1571,-2.1571,-2.157,-2.1604,-2.1606,-2.1608,-2.1631,0,0,-2.1614,-2.1614,0,0,0,0,0,0,0,0,-2.1492,-2.1496,-2.1537,-2.1538,-2.1539,-2.1565,-2.1556,-2.159,-2.1572,-2.1559,-2.1571,-2.157,-2.1592,-2.1595,-2.1603,-2.1633,-2.1634,-2.1614,-2.1615,-2.1616,-2.1616,0,0,0,0,0,0,0,-2.1489,-2.1494,-2.1546,-2.1537,-2.1539,-2.1538,-2.1542,-2.1562,-2.1578,-2.156,-2.1561,-2.1565,-2.1592,-2.1601,-2.1604,-2.1635,-2.1614,-2.1615,-2.1617,-2.1617,-2.1684,-2.1685,0,0,0,0,0,0,-2.1486,-2.1493,-2.1545,-2.1547,-2.1513,-2.154,-2.1544,-2.1557,-2.1578,-2.1581,-2.1566,-2.1565,-2.1598,-2.1601,-2.1605,-2.1632,-2.1616,-2.1617,-2.1619,-2.1683,-2.1684,-2.1685,0,0,0,0,0,0,-2.1485,-2.1491,-2.1543,-2.152,-2.1527,-2.1542,-2.1556,-2.1558,-2.1567,-2.1582,-2.1585,-2.1572,-2.1598,-2.1602,-2.1624,-2.1634,-2.1618,-2.162,-2.1683,-2.1684,-2.1684,-2.1689,0,0,0,0,0,0,-2.1483,-2.149,-2.15,-2.152,-2.1528,-2.1563,-2.1556,-2.1559,-2.157,-2.157,-2.1588,-2.1591,-2.1597,-2.1622,-2.1626,-2.1636,-2.1622,-2.1682,-2.1683,-2.1684,-2.1688,-2.169,-2.1691,0,0,0,0,0,-2.148,-2.15,-2.1501,-2.1507,-2.1541,-2.1564,-2.1568,-2.1576,-2.1571,-2.1581,-2.159,-2.159,-2.1632,-2.1624,-2.1629,-2.164,-2.1681,-2.1683,-2.1684,-2.1687,-2.1689,-2.1691,0,0,0,0,0,0,-2.148,-2.1502,-2.1504,-2.1531,-2.1546,-2.1564,-2.1577,-2.1579,-2.1594,-2.1593,-2.1602,-2.1606,-2.1627,-2.1636,-2.1626,-2.1663,-2.1656,-2.1658,-2.1656,-2.1659,-2.166,-2.1658,-2.1623,0,0,0,0,0,-2.1483,-2.1501,-2.1519,-2.1541,-2.1549,-2.1561,-2.1572,-2.1577,-2.1592,-2.1598,-2.1609,-2.1623,-2.1639,-2.1649,-2.1665,-2.1689,-2.1692,-2.1699,-2.1701,-2.1702,-2.1704,-2.1716,-2.1719,-2.1689,-2.1689,-2.1689,0,0,-2.1489,-2.1504,-2.1515,-2.1541,-2.1553,-2.1571,-2.1567,-2.1585,-2.1598,-2.16,-2.1622,-2.1631,-2.1647,-2.167,-2.168,-2.1677,-2.1713,-2.1704,-2.1705,-2.1706,-2.1718,-2.172,-2.1723,-2.169,-2.169,-2.169,0,0,-2.151,-2.1523,-2.1542,-2.1555,-2.1573,-2.1581,-2.1586,-2.1604,-2.161,-2.1633,-2.1635,-2.1649,-2.1677,-2.1688,-2.1697,-2.172,-2.1721,-2.1725,-2.1734,-2.1746,-2.1748,-2.175,-2.1757,-2.176,-2.1727,-2.1727,-2.1727,0,-2.1515,-2.1542,-2.1552,-2.157,-2.1581,-2.1585,-2.1604,-2.1615,-2.1637,-2.1644,-2.164,-2.1675,-2.1686,-2.1711,-2.1716,-2.1724,-2.1728,-2.1723,-2.1747,-2.1749,-2.1751,-2.1758,-2.1761,-2.1728,-2.1728,-2.1728,-2.1728,0,-2.1547,-2.1566,-2.1579,-2.1601,-2.1614,-2.1632,-2.1643,-2.1654,-2.1658,-2.1666,-2.1687,-2.1701,-2.1719,-2.1725,-2.1729,-2.175,-2.1748,-2.1746,-2.1739,-2.1754,-2.1761,-2.1764,-2.1728,-2.1728,-2.1728,-2.1728,0,0,-2.1569,-2.1595,-2.16,-2.1609,-2.163,-2.1644,-2.1662,-2.168,-2.1689,-2.1704,-2.1718,-2.1741,-2.1739,-2.175,-2.1754,-2.1765,-2.1781,-2.1761,-2.1762,-2.1763,-2.1804,-2.1805,-2.1808,-2.1781,-2.1782,-2.1782,-2.1802,0,-2.159,-2.1624,-2.1632,-2.166,-2.1676,-2.168,-2.1695,-2.1708,-2.1716,-2.173,-2.1739,-2.1755,-2.1752,-2.1758,-2.1768,-2.1777,-2.1789,-2.1776,-2.1793,-2.1794,-2.1789,-2.1812,-2.1813,-2.1831,-2.1805,-2.1806,-2.1806,0,-2.1621,-2.1637,-2.1666,-2.1684,-2.1691,-2.1705,-2.1721,-2.1736,-2.175,-2.1755,-2.1766,-2.177,-2.1787,-2.178,-2.1803,-2.1793,-2.1801,-2.1806,-2.1807,-2.1809,-2.18,-2.1812,-2.1837,-2.1839,-2.181,-2.181,-2.181,0,-2.1632,-2.1661,-2.1682,-2.169,-2.1711,-2.1721,-2.1729,-2.1744,-2.1754,-2.1768,-2.1775,-2.1791,-2.1799,-2.1811,-2.1818,-2.1812,-2.184,-2.1834,-2.1843,-2.1843,-2.1848,-2.1848,-2.1873,-2.1855,-2.1855,-2.1855,-2.1854,0,-2.1655,-2.1672,-2.1687,-2.17,-2.1719,-2.1728,-2.1747,-2.1756,-2.1768,-2.1782,-2.1786,-2.1798,-2.1807,-2.182,-2.1826,-2.1843,-2.1847,-2.1851,-2.1852,-2.185,-2.1849,-2.1855,-2.1853,-2.1855,-2.1855,-2.1855,-2.1855,0,-2.167,-2.1681,-2.1704,-2.1722,-2.1727,-2.174,-2.1755,-2.1767,-2.1775,-2.1792,-2.1796,-2.1808,-2.1824,-2.1833,-2.1852,-2.1856,-2.1875,-2.1876,-2.187,-2.1871,-2.1879,-2.1878,-2.1909,-2.1913,-2.1892,-2.1892,-2.1892,0,-2.1684,-2.1698,-2.1717,-2.1727,-2.1736,-2.1752,-2.1763,-2.1772,-2.1782,-2.1799,-2.1809,-2.1825,-2.1838,-2.1863,-2.1873,-2.1887,-2.1888,-2.1897,-2.189,-2.1887,-2.1887,-2.1885,-2.1886,-2.1898,-2.1899,-2.1899,-2.1899,0,-2.1707,-2.1711,-2.1727,-2.1744,-2.1757,-2.177,-2.1784,-2.1791,-2.1802,-2.1813,-2.183,-2.184,-2.186,-2.1876,-2.1891,-2.1899,-2.19,-2.1901,-2.1904,-2.1902,-2.1898,-2.1899,-2.1873,-2.19,-2.19,-2.19,-2.19,-2.19,-2.1721,-2.1733,-2.1749,-2.1765,-2.1776,-2.1789,-2.1801,-2.181,-2.1824,-2.1842,-2.1846,-2.1863,-2.1876,-2.1897,-2.1905,-2.1918,-2.1916,-2.192,-2.1921,-2.1921,-2.1921,-2.1897,-2.192,-2.192,-2.192,-2.192,-2.192,0,-2.1743,-2.1753,-2.1769,-2.1788,-2.18,-2.1802,-2.1816,-2.1827,-2.1842,-2.1854,-2.1868,-2.1886,-2.1901,-2.1911,-2.1926,-2.1934,-2.1935,-2.1938,-2.1937,-2.1938,-2.1923,-2.1919,-2.1937,-2.1937,-2.1937,-2.1937,-2.1937,-2.1937,-2.1756,-2.1776,-2.1782,-2.1807,-2.1817,-2.1834,-2.1842,-2.1853,-2.1863,-2.1884,-2.1896,-2.1904,-2.1915,-2.193,-2.1944,-2.1946,-2.1951,-2.1953,-2.1956,-2.1941,-2.1939,-2.1938,-2.1934,-2.1955,-2.1955,-2.197,-2.197,-2.197]}]]